Location: Blackwater Beach
(38.5801°N, 75.1577°W)
Time: 09:29:09
(UTC+00:00)

SJ-6F - Pass Details

Date: 13 February 2026
Orbit: 541 x 569 km, 97.9° (Epoch: 11 March)

Event Time Altitude Azimuth Distance (km) Brightness Sun altitude
Rises 23:02:54 0° 165° (SSE) 2,717 7.8 -5.8°
Reaches altitude 10° 23:05:01 10° 165° (SSE) 1,823 7.0 -6.2°
Maximum altitude 23:08:58 86° 79° (E) 556 4.3 -7.0°
Drops below altitude 10° 23:12:54 10° 349° (NNW) 1,822 7.0 -7.8°
Sets 23:15:02 0° 349° (NNW) 2,716 7.9 -8.2°
